WH7F Weather Reports


Display with metric or nautical units.
time (UTC)temp
F
wind
direction
speed
MPH
gust
MPH
rain 1hr
in
rain 24hr
in
rain mn
in
humidity
%
barometer
mb
20260507081527 55 23 1.0 2.0 0.00 0.19 0.11 97 1011.3
20260507080518 55 2 1.0 2.0 0.00 0.19 0.11 97 1011.4
20260507075521 55 11 1.0 2.0 0.00 0.19 0.11 97 1011.2
20260507074538 55 35 2.0 4.0 0.00 0.19 0.11 97 1010.9
20260507073517 55 59 2.0 7.0 0.00 0.19 0.11 97 1011.0
20260507072518 55 44 1.0 3.0 0.00 0.19 0.11 97 1010.9
20260507071527 56 23 0.0 2.0 0.00 0.19 0.11 97 1010.7
20260507070518 55 34 0.0 2.0 0.00 0.19 0.11 97 1010.9
20260507065523 55 35 1.0 2.0 0.00 0.19 0.11 97 1010.7
20260507064518 55 24 1.0 2.0 0.00 0.19 0.11 97 1010.6
20260507063521 56 24 2.0 3.0 0.03 0.19 0.11 97 1010.5
20260507062519 56 28 1.0 4.0 0.06 0.19 0.11 97 1010.4
20260507061518 57 24 2.0 3.0 0.08 0.19 0.11 97 1010.7
20260507060519 57 24 1.0 4.0 0.11 0.19 0.11 97 1010.7
20260507055527 57 19 1.0 4.0 0.11 0.19 0.11 96 1010.8
20260507054517 58 39 0.0 2.0 0.11 0.19 0.11 96 1010.5
20260507053520 58 348 0.0 1.0 0.08 0.17 0.08 96 1010.4
20260507052520 59 337 1.0 3.0 0.06 0.14 0.06 95 1010.9
20260507051518 60 44 0.0 5.0 0.03 0.11 0.03 95 1010.8
20260507050519 61 0.0 0.0 0.00 0.08 0.00 94 1010.5
20260507045527 62 30 0.0 0.0 0.00 0.08 0.00 93 1010.7
20260507044517 63 289 0.0 3.0 0.00 0.08 0.00 92 1010.8
20260507043526 63 289 0.0 2.0 0.00 0.08 0.00 92 1010.5
20260507042517 63 319 0.0 2.0 0.00 0.08 0.00 92 1010.5
20260507041602 64 351 0.0 0.0 0.00 0.08 0.00 92 1010.0
20260507040519 64 89 1.0 2.0 0.00 0.08 0.00 93 1009.9
20260507035518 64 29 1.0 3.0 0.00 0.08 0.08 93 1010.1
20260507034519 64 36 1.0 4.0 0.00 0.08 0.08 93 1010.2
20260507033528 65 22 1.0 4.0 0.00 0.08 0.08 93 1010.1
20260507032519 65 26 1.0 4.0 0.00 0.08 0.08 93 1009.8
20260507031518 65 37 0.0 2.0 0.00 0.08 0.08 93 1009.7
20260507030519 65 0.0 0.0 0.00 0.08 0.08 93 1009.7
20260507025520 65 334 0.0 0.0 0.00 0.08 0.08 93 1009.7
20260507024519 65 315 0.0 1.0 0.00 0.08 0.08 93 1009.4
20260507023517 65 0.0 0.0 0.00 0.08 0.08 93 1009.3
20260507022519 66 0.0 0.0 0.00 0.08 0.08 93 1009.3
20260507021528 65 0.0 0.0 0.00 0.08 0.08 93 1009.2
20260507020517 65 0.0 0.0 0.00 0.08 0.08 93 1009.3
20260507015525 66 0.0 0.0 0.00 0.08 0.08 93 1009.1
20260507014519 66 0.0 0.0 0.00 0.08 0.08 92 1009.5
20260507013520 66 0.0 0.0 0.00 0.08 0.08 91 1009.7
20260507012540 66 0.0 0.0 0.00 0.08 0.08 91 1009.8
20260507011528 67 0.0 0.0 0.00 0.08 0.08 91 1009.9
20260507010539 66 0.0 0.0 0.00 0.08 0.08 91 1009.4
20260507005526 67 0.0 0.0 0.00 0.08 0.08 91 1009.5
20260507004517 67 0.0 0.0 0.00 0.08 0.08 91 1009.3
20260507003522 67 0.0 0.0 0.00 0.08 0.08 91 1009.3
20260507002539 67 0.0 0.0 0.00 0.08 0.08 91 1009.1
20260507001518 68 0.0 0.0 0.00 0.08 0.08 91 1009.2
20260507000519 68 0.0 0.0 0.00 0.08 0.08 89 1009.2
20260506235528 68 313 0.0 0.0 0.00 0.08 0.08 89 1009.1
20260506234519 68 151 0.0 1.0 0.00 0.08 0.08 89 1008.9
20260506233524 69 160 0.0 2.0 0.00 0.08 0.08 89 1008.8
20260506232519 69 246 0.0 1.0 0.00 0.08 0.08 89 1008.7
20260506231520 69 175 0.0 2.0 0.00 0.08 0.08 89 1008.5
20260506230519 70 280 0.0 3.0 0.00 0.08 0.08 89 1008.7
20260506225516 70 251 1.0 2.0 0.00 0.08 0.08 89 1008.6
20260506224537 70 248 1.0 6.0 0.00 0.08 0.08 88 1008.6
20260506223608 71 179 1.0 5.0 0.00 0.08 0.08 88 1008.7
20260506222519 71 164 1.0 4.0 0.00 0.08 0.08 88 1008.5
20260506221524 72 205 1.0 2.0 0.00 0.08 0.08 88 1008.6
20260506220521 72 235 1.0 3.0 0.00 0.08 0.08 88 1008.6
20260506215520 72 242 2.0 6.0 0.00 0.08 0.08 88 1008.7
20260506214521 73 193 2.0 4.0 0.00 0.08 0.08 88 1008.5
20260506213528 74 210 2.0 6.0 0.00 0.08 0.08 88 1008.4
20260506212601 75 215 1.0 4.0 0.00 0.08 0.08 88 1008.3
20260506211524 76 227 1.0 4.0 0.00 0.08 0.08 87 1008.4
20260506210517 75 244 2.0 3.0 0.00 0.08 0.08 87 1008.1
20260506205522 76 206 2.0 4.0 0.00 0.08 0.08 87 1008.1
20260506204521 76 234 2.0 7.0 0.00 0.08 0.08 87 1008.1
20260506203518 75 257 2.0 6.0 0.00 0.08 0.08 87 1008.1
20260506202541 75 182 2.0 4.0 0.00 0.08 0.08 87 1008.1
20260506201528 74 203 2.0 6.0 0.00 0.08 0.08 88 1008.2
20260506200518 74 172 2.0 5.0 0.00 0.08 0.08 87 1008.1
20260506195526 74 163 2.0 6.0 0.00 0.08 0.08 87 1008.0
20260506194521 75 195 2.0 5.0 0.00 0.08 0.08 87 1008.2
20260506193522 75 227 1.0 4.0 0.00 0.08 0.08 87 1008.3
20260506192521 75 175 1.0 2.0 0.00 0.08 0.08 87 1008.4
20260506191518 74 176 2.0 8.0 0.00 0.08 0.08 87 1008.4
20260506190541 73 255 2.0 4.0 0.00 0.08 0.08 87 1008.5
20260506185528 73 240 2.0 5.0 0.00 0.08 0.08 88 1008.6
20260506184519 74 175 2.0 6.0 0.00 0.08 0.08 87 1008.8
20260506183524 74 257 2.0 6.0 0.00 0.08 0.08 87 1008.9
20260506182521 74 176 2.0 9.0 0.00 0.08 0.08 87 1009.1
20260506181520 72 184 2.0 4.0 0.00 0.08 0.08 87 1009.1
20260506180520 71 209 2.0 6.0 0.00 0.08 0.08 88 1009.4
20260506175531 70 229 2.0 6.0 0.00 0.08 0.08 88 1009.3
20260506174521 69 183 1.0 10.0 0.00 0.08 0.08 89 1009.3
20260506173528 68 202 1.0 4.0 0.00 0.08 0.08 89 1009.4
20260506172517 68 178 2.0 4.0 0.00 0.08 0.08 89 1009.6
20260506171523 67 231 2.0 8.0 0.00 0.08 0.08 89 1009.5
20260506170518 66 251 2.0 7.0 0.00 0.08 0.08 89 1009.6
20260506165558 65 227 1.0 2.0 0.00 0.08 0.08 91 1009.8
20260506164521 64 219 2.0 4.0 0.03 0.08 0.08 92 1009.7
20260506163529 64 230 2.0 4.0 0.03 0.08 0.08 90 1009.5
20260506162520 65 238 2.0 4.0 0.03 0.08 0.08 90 1009.6
20260506161523 63 232 1.0 4.0 0.03 0.08 0.08 91 1009.8
20260506160521 62 56 1.0 4.0 0.06 0.08 0.08 92 1010.2
20260506155521 63 191 1.0 4.0 0.06 0.08 0.08 90 1010.1
20260506154520 62 208 1.0 3.0 0.06 0.06 0.06 91 1010.0
20260506153518 62 206 1.0 4.0 0.06 0.06 0.06 90 1010.1
20260506152520 62 199 1.0 4.0 0.06 0.06 0.06 89 1010.6
20260506151549 62 169 1.0 2.0 0.06 0.06 0.06 89 1010.8
20260506150518 62 198 1.0 4.0 0.03 0.03 0.03 89 1010.8
20260506145525 61 203 1.0 4.0 0.03 0.03 0.03 88 1010.9
20260506144520 62 185 1.0 2.0 0.00 0.00 0.00 87 1010.9
20260506143519 62 200 1.0 2.0 0.00 0.00 0.00 86 1010.8
20260506142542 62 168 1.0 4.0 0.00 0.00 0.00 85 1010.9
20260506141515 62 120 0.0 3.0 0.00 0.00 0.00 82 1010.9
20260506140522 63 204 1.0 4.0 0.00 0.00 0.00 77 1010.9
20260506135527 65 236 1.0 3.0 0.00 0.00 0.00 71 1011.1
20260506134516 65 195 1.0 3.0 0.00 0.00 0.00 67 1011.2
20260506133523 66 179 1.0 4.0 0.00 0.00 0.00 65 1011.0
20260506132520 66 212 1.0 4.0 0.00 0.00 0.00 66 1010.9
20260506131520 66 205 1.0 3.0 0.00 0.00 0.00 64 1010.8
20260506130522 67 205 1.0 3.0 0.00 0.00 0.00 63 1010.7
20260506125529 67 218 2.0 6.0 0.00 0.00 0.00 63 1010.6
20260506124520 67 189 1.0 4.0 0.00 0.00 0.00 63 1010.7
20260506123528 67 168 1.0 2.0 0.00 0.00 0.00 63 1010.8
20260506122516 67 198 2.0 5.0 0.00 0.00 0.00 62 1011.1
20260506121523 67 164 1.0 3.0 0.00 0.00 0.00 62 1010.9
20260506120542 67 217 2.0 5.0 0.00 0.00 0.00 62 1011.0
20260506115517 67 218 2.0 6.0 0.00 0.00 0.00 62 1010.9
20260506114516 67 168 2.0 5.0 0.00 0.00 0.00 63 1010.7
20260506113530 67 217 2.0 5.0 0.00 0.00 0.00 63 1010.5
20260506112518 66 168 1.0 4.0 0.00 0.00 0.00 64 1010.6
20260506111546 65 84 1.0 3.0 0.00 0.00 0.00 64 1010.4
20260506110522 65 175 2.0 4.0 0.00 0.00 0.00 64 1010.4
20260506105521 65 194 2.0 4.0 0.00 0.00 0.00 64 1010.4
20260506104522 65 197 1.0 5.0 0.00 0.00 0.00 64 1010.3
20260506103516 64 177 1.0 7.0 0.00 0.00 0.00 64 1010.3
20260506102522 64 200 1.0 4.0 0.00 0.00 0.00 64 1010.3
20260506101549 64 179 1.0 4.0 0.00 0.00 0.00 64 1010.1
20260506100539 64 185 1.0 3.0 0.00 0.00 0.00 63 1010.3
20260506095523 64 214 1.0 5.0 0.00 0.00 0.00 63 1010.3
20260506094523 64 174 1.0 3.0 0.00 0.00 0.00 63 1010.3
20260506093515 64 157 1.0 5.0 0.00 0.00 0.00 62 1010.4
20260506092523 65 185 2.0 5.0 0.00 0.00 0.00 62 1010.3
20260506091530 65 197 2.0 5.0 0.00 0.00 0.00 62 1010.4
20260506090521 65 204 2.0 7.0 0.00 0.00 0.00 60 1010.5
20260506085528 65 184 1.0 3.0 0.00 0.00 0.00 60 1010.4
20260506084517 65 199 1.0 3.0 0.00 0.00 0.00 60 1010.4
20260506083542 65 195 1.0 4.0 0.00 0.00 0.00 59 1010.5
20260506082543 66 150 1.0 4.0 0.00 0.00 0.00 59 1010.6